SCP
0 0 0 0 0 0 0 0 0 0 0 0 0 0 0 0 0 0 0 0 0 0 0 0 0 0 0
0 0 0 0 0 0 0 0 0 0 0 0 0 0 0 0 0 0 0 0 0 0 0 0 0 0 0
0 0 0 0 0 0 0 0 0 0 0 0 0 0 0 0 0 0 0 0 0 0 0 0 0 0 0
0 0 0 0 0 0 0 0 0 0 0 0 0 0 0 0 0 0 0 0 0 0 0 0 0 0 0
0 0 0 0 0 0 0 0 0 0 0 0 0 0 0 0 0 0 0 0 0 0 0 0 0 0 0
0 0 0 0 0 0 0 0 0 0 0 0 0 0 0 0 0 0 0 0 0 0 0 0 0 0 0
0 0 0 0 0 0 0 0 0 0 0 0 0 0 0 0 0 0 0 0 0 0 0 0 0 0 0
0 0 0 0 0 0 0 0 0 0 0 0 0 0 0 0 0 0 0 0 0 0 0 0 0 0 0
0 0 0 0 0 0 0 0 0 0 0 0 0 0 0 0 0 0 0 0 0 0 0 0 0 0 0
0 0 0 0 0 0 0 0 0 0 0 0 0 0 0 0 0 0 0 0 0 0 0 0 0 0 0
0 0 0 0 0 0 0 0 0 0 0 0 0 0 0 0 0 0 0 0 0 0 0 0 0 0 0
0 0 0 0 0 0 0 0 0 0 0 0 0 0 0 0 0 0 0 0 0 0 0 0 0 0 0
0 0 0 0 0 0 0 0 0 0 0 0 0 0 0 0 0 0 0 0 0 0 0 0 0 0 0
0 0 0 0 0 0 0 0 0 0 0 0 0 0 0 0 0 0 0 0 0 0 0 0 0 0 0
0 0 0 0 0 0 0 0 0 0 0 0 0 0 0 0 0 0 0 0 0 0 0 0 0 0 0
0 0 0 0 0 0 0 0 0 0 0 0 0 0 0 0 0 0 0 0 0 0 0 0 0 0 0
0 0 0 0 0 0 0 0 0 0 0 0 0 0 0 0 0 0 0 0 0 0 0 0 0 0 0
Wind_Speed_500mb
41 34 34 34 33 35 37 38 38 35 30 31 32 31 30 32 32 31 32 26 28 34 38 35 37 38 36
46 40 37 32 35 35 31 32 34 33 32 29 29 31 35 36 34 29 27 30 33 34 36 41 42 42 42
50 45 41 36 36 33 32 31 31 30 27 30 34 36 34 34 34 35 38 37 34 37 40 40 42 43 44
48 50 47 42 38 40 38 33 35 33 35 35 34 30 24 25 27 30 35 38 45 48 45 44 42 46 50
43 45 46 43 39 37 41 43 42 41 39 32 33 33 33 37 39 41 40 42 45 45 46 49 50 49 50
38 39 39 38 37 38 41 44 50 40 38 41 45 47 44 40 43 42 39 40 42 40 42 46 48 47 47
42 42 43 42 43 44 43 45 51 52 55 63 56 52 43 42 44 42 37 34 35 37 41 37 38 35 38
47 48 50 47 49 49 49 54 57 55 51 68 62 61 51 44 40 44 44 42 42 42 40 39 38 39 42
49 50 49 49 48 51 54 51 56 57 53 53 62 56 52 44 34 35 37 38 37 35 36 37 32 34 39
55 56 54 52 49 50 53 58 60 65 46 34 47 41 42 46 37 29 27 22 19 22 27 30 34 39 41
57 61 61 60 58 53 54 57 62 67 60 50 61 54 42 56 65 56 48 49 50 50 47 47 48 49 51
59 63 64 65 61 58 55 53 52 61 59 52 56 49 49 61 70 69 65 62 61 58 54 56 54 52 54
61 65 64 62 56 52 46 41 45 51 57 51 53 55 58 67 72 70 70 77 69 67 66 63 63 62 65
64 63 60 52 53 48 48 46 46 52 48 52 54 52 56 62 65 71 72 69 61 65 65 65 60 59 60
54 54 55 57 57 50 46 50 56 61 67 66 60 58 63 61 69 72 69 76 78 73 68 73 70 63 61
52 54 57 55 57 58 58 59 65 69 68 63 62 63 66 68 65 71 70 72 69 69 71 76 80 70 60
52 56 57 60 66 70 66 60 64 69 67 61 62 60 57 64 68 60 62 62 65 63 60 60 65 62 55
Wind_Direction_500mb
288 292 292 296 294 293 296 294 291 291 290 295 291 285 286 286 285 280 272 261 262 265 266 260 256 251 252
289 293 293 295 298 298 298 293 290 288 288 291 295 297 293 287 282 268 265 264 256 254 259 260 261 259 259
287 292 294 295 293 291 291 290 290 289 288 289 300 303 293 291 288 276 262 261 258 258 257 261 262 262 261
284 290 293 297 296 297 288 285 281 278 282 286 290 295 297 302 298 288 280 275 260 256 258 262 265 262 262
284 290 292 300 303 301 294 293 287 289 285 282 279 274 286 291 291 289 282 278 274 266 260 261 263 262 264
289 289 295 300 305 302 300 301 303 298 296 283 280 279 281 283 284 286 283 278 275 274 270 266 262 264 255
285 287 292 296 297 296 294 292 290 293 293 291 292 289 287 284 281 278 276 273 272 276 278 274 275 260 254
284 287 290 291 292 292 291 289 287 288 290 291 294 294 295 287 278 273 270 271 275 276 273 274 271 251 245
282 282 281 283 286 288 286 286 285 289 293 293 296 298 295 292 282 275 271 272 272 271 274 276 271 258 253
278 278 279 279 277 276 278 276 276 285 291 274 289 299 302 291 283 266 261 264 274 286 281 277 275 271 268
283 282 282 280 278 276 274 273 271 267 267 269 278 283 278 282 284 276 268 267 272 276 276 277 277 274 271
285 286 287 287 287 287 281 274 267 265 267 263 268 268 273 277 281 285 285 285 284 274 272 272 271 270 271
282 281 288 287 285 281 279 276 273 271 267 260 262 267 268 270 274 277 284 285 285 283 278 274 269 267 269
281 284 290 284 282 280 281 281 280 276 272 274 276 274 270 273 277 278 275 270 275 279 280 275 270 266 268
279 280 284 284 280 281 280 280 278 277 279 278 275 273 281 280 273 274 268 270 274 276 280 279 276 268 265
283 281 281 281 282 282 283 280 279 278 277 277 277 281 283 279 272 270 269 270 273 277 272 271 274 273 273
283 282 282 280 282 286 288 285 280 278 274 270 275 275 269 268 278 271 272 274 279 275 274 270 268 271 272
Wind_Speed_850mb
41 34 34 34 33 35 37 38 38 35 30 31 32 31 30 32 32 31 32 26 28 34 38 35 37 38 36
46 40 37 32 35 35 31 32 34 33 32 29 29 31 35 36 34 29 27 30 33 34 36 41 42 42 42
50 45 41 36 36 33 32 31 31 30 27 30 34 36 34 34 34 35 38 37 34 37 40 40 42 43 44
48 50 47 42 38 40 38 33 35 33 35 35 34 30 24 25 27 30 35 38 45 48 45 44 42 46 50
43 45 46 43 39 37 41 43 42 41 39 32 33 33 33 37 39 41 40 42 45 45 46 49 50 49 50
38 39 39 38 37 38 41 44 50 40 38 41 45 47 44 40 43 42 39 40 42 40 42 46 48 47 47
42 42 43 42 43 44 43 45 51 52 55 63 56 52 43 42 44 42 37 34 35 37 41 37 38 35 38
47 48 50 47 49 49 49 54 57 55 51 68 62 61 51 44 40 44 44 42 42 42 40 39 38 39 42
49 50 49 49 48 51 54 51 56 57 53 53 62 56 52 44 34 35 37 38 37 35 36 37 32 34 39
55 56 54 52 49 50 53 58 60 65 46 34 47 41 42 46 37 29 27 22 19 22 27 30 34 39 41
57 61 61 60 58 53 54 57 62 67 60 50 61 54 42 56 65 56 48 49 50 50 47 47 48 49 51
59 63 64 65 61 58 55 53 52 61 59 52 56 49 49 61 70 69 65 62 61 58 54 56 54 52 54
61 65 64 62 56 52 46 41 45 51 57 51 53 55 58 67 72 70 70 77 69 67 66 63 63 62 65
64 63 60 52 53 48 48 46 46 52 48 52 54 52 56 62 65 71 72 69 61 65 65 65 60 59 60
54 54 55 57 57 50 46 50 56 61 67 66 60 58 63 61 69 72 69 76 78 73 68 73 70 63 61
52 54 57 55 57 58 58 59 65 69 68 63 62 63 66 68 65 71 70 72 69 69 71 76 80 70 60
52 56 57 60 66 70 66 60 64 69 67 61 62 60 57 64 68 60 62 62 65 63 60 60 65 62 55
Wind_Direction_850mb
288 292 292 296 294 293 296 294 291 291 290 295 291 285 286 286 285 280 272 261 262 265 266 260 256 251 252
289 293 293 295 298 298 298 293 290 288 288 291 295 297 293 287 282 268 265 264 256 254 259 260 261 259 259
287 292 294 295 293 291 291 290 290 289 288 289 300 303 293 291 288 276 262 261 258 258 257 261 262 262 261
284 290 293 297 296 297 288 285 281 278 282 286 290 295 297 302 298 288 280 275 260 256 258 262 265 262 262
284 290 292 300 303 301 294 293 287 289 285 282 279 274 286 291 291 289 282 278 274 266 260 261 263 262 264
289 289 295 300 305 302 300 301 303 298 296 283 280 279 281 283 284 286 283 278 275 274 270 266 262 264 255
285 287 292 296 297 296 294 292 290 293 293 291 292 289 287 284 281 278 276 273 272 276 278 274 275 260 254
284 287 290 291 292 292 291 289 287 288 290 291 294 294 295 287 278 273 270 271 275 276 273 274 271 251 245
282 282 281 283 286 288 286 286 285 289 293 293 296 298 295 292 282 275 271 272 272 271 274 276 271 258 253
278 278 279 279 277 276 278 276 276 285 291 274 289 299 302 291 283 266 261 264 274 286 281 277 275 271 268
283 282 282 280 278 276 274 273 271 267 267 269 278 283 278 282 284 276 268 267 272 276 276 277 277 274 271
285 286 287 287 287 287 281 274 267 265 267 263 268 268 273 277 281 285 285 285 284 274 272 272 271 270 271
282 281 288 287 285 281 279 276 273 271 267 260 262 267 268 270 274 277 284 285 285 283 278 274 269 267 269
281 284 290 284 282 280 281 281 280 276 272 274 276 274 270 273 277 278 275 270 275 279 280 275 270 266 268
279 280 284 284 280 281 280 280 278 277 279 278 275 273 281 280 273 274 268 270 274 276 280 279 276 268 265
283 281 281 281 282 282 283 280 279 278 277 277 277 281 283 279 272 270 269 270 273 277 272 271 274 273 273
283 282 282 280 282 286 288 285 280 278 274 270 275 275 269 268 278 271 272 274 279 275 274 270 268 271 272